,,PA_Meas_PMT16A,,PR_Meas_QMR101_102,,RH_Meas_QMH101,,SR_Meas_QMS101,,TA_Meas_QMH101,,GenWind,,GenWind,
time,status,PA,status,PR,status,RH,status,SR,status,TA,status,DirAvg,status,SpdAvg,
2012-12-27, 00:00:04,VALID,916.076,VALID,0,VALID,92.5788,VALID,0,VALID,20.2504,VALID,169,VALID,0,
2012-12-27, 00:01:04,VALID,916.058,VALID,0,VALID,92.7236,VALID,0,VALID,20.2519,VALID,169,VALID,0,
2012-12-27, 00:02:04,VALID,916.044,VALID,0,VALID,93.0362,VALID,0,VALID,20.1724,VALID,169,VALID,0,
2012-12-27, 00:03:04,VALID,916.029,VALID,0,VALID,93.059,VALID,0,VALID,20.0944,VALID,53,VALID,0,
2012-12-27, 00:04:04,VALID,916.024,VALID,0,VALID,93.3182,VALID,0,VALID,20.0163,VALID,27,VALID,0,
2012-12-27, 00:05:04,VALID,916.055,VALID,0,VALID,93.5088,VALID,0,VALID,19.9788,VALID,27,VALID,0,
2012-12-27, 00:06:04,VALID,916.035,VALID,0,VALID,93.7299,VALID,0,VALID,19.9398,VALID,27,VALID,0,
2012-12-27, 00:07:04,VALID,916.033,VALID,0,VALID,93.9357,VALID,0,VALID,19.9008,VALID,33,VALID,0,
2012-12-27, 00:08:04,VALID,916.015,VALID,0,VALID,94.1339,VALID,0,VALID,19.8423,VALID,33,VALID,0,
2012-12-27, 00:09:04,VALID,916.073,VALID,0,VALID,94.2559,VALID,0,VALID,19.8033,VALID,33,VALID,0,
2012-12-27, 00:10:04,VALID,916.048,VALID,0,VALID,94.3855,VALID,0,VALID,19.7448,VALID,33,VALID,0,
2012-12-27, 00:11:04,VALID,916.066,VALID,0,VALID,94.6523,VALID,0,VALID,19.7253,VALID,33,VALID,0,
2012-12-27, 00:12:04,VALID,916.059,VALID,0,VALID,94.942,VALID,0,VALID,19.7058,VALID,33,VALID,0,
2012-12-27, 00:13:04,VALID,916.057,VALID,0,VALID,95.1783,VALID,0,VALID,19.7058,VALID,32,VALID,0,
2012-12-27, 00:14:04,VALID,916.059,VALID,0,VALID,95.3689,VALID,0,VALID,19.6668,VALID,32,VALID,0,
2012-12-27, 00:15:04,VALID,916.063,VALID,0,VALID,95.4757,VALID,0,VALID,19.6458,VALID,32,VALID,0,
2012-12-27, 00:16:04,VALID,916.041,VALID,0,VALID,95.529,VALID,0,VALID,19.6863,VALID,32,VALID,0,
2012-12-27, 00:17:04,VALID,916.031,VALID,0,VALID,95.5367,VALID,0,VALID,19.6668,VALID,32,VALID,0,
2012-12-27, 00:18:04,VALID,916,VALID,0,VALID,95.5824,VALID,0,VALID,19.6458,VALID,32,VALID,0,
2012-12-27, 00:19:04,VALID,916.013,VALID,0,VALID,95.5671,VALID,0,VALID,19.6278,VALID,32,VALID,0,
2012-12-27, 00:20:04,VALID,915.984,VALID,0,VALID,95.6205,VALID,0,VALID,19.6278,VALID,32,VALID,0,
2012-12-27, 00:21:04,VALID,915.949,VALID,0,VALID,95.6967,VALID,0,VALID,19.6278,VALID,32,VALID,0,
2012-12-27, 00:22:04,VALID,915.936,VALID,0,VALID,95.7577,VALID,0,VALID,19.6668,VALID,32,VALID,0,
2012-12-27, 00:23:04,VALID,915.9,VALID,0,VALID,95.6357,VALID,0,VALID,19.6263,VALID,32,VALID,0,
2012-12-27, 00:24:04,VALID,915.874,VALID,0,VALID,95.5519,VALID,0,VALID,19.6083,VALID,32,VALID,0,
2012-12-27, 00:25:04,VALID,915.823,VALID,0,VALID,95.5443,VALID,0,VALID,19.5888,VALID,32,VALID,0,
2012-12-27, 00:26:04,VALID,915.829,VALID,0,VALID,95.4223,VALID,0,VALID,19.5693,VALID,32,VALID,0,
2012-12-27, 00:27:04,VALID,915.798,VALID,0,VALID,95.4604,VALID,0,VALID,19.5708,VALID,32,VALID,0,
2012-12-27, 00:28:04,VALID,915.797,VALID,0,VALID,95.4299,VALID,0,VALID,19.5122,VALID,39,VALID,0,
2012-12-27, 00:29:04,VALID,915.784,VALID,0,VALID,95.7272,VALID,0,VALID,19.5108,VALID,47,VALID,0,
2012-12-27, 00:30:04,VALID,915.765,VALID,0,VALID,95.8797,VALID,0,VALID,19.5693,VALID,47,VALID,0,
2012-12-27, 00:31:04,VALID,915.765,VALID,0,VALID,95.9254,VALID,0,VALID,19.6683,VALID,47,VALID,0,
2012-12-27, 00:32:04,VALID,915.758,VALID,0,VALID,95.8187,VALID,0,VALID,19.7433,VALID,47,VALID,0,
2012-12-27, 00:33:04,VALID,915.729,VALID,0,VALID,95.6281,VALID,0,VALID,19.8423,VALID,47,VALID,0,
2012-12-27, 00:34:04,VALID,915.728,VALID,0,VALID,95.3918,VALID,0,VALID,19.9008,VALID,47,VALID,0,
2012-12-27, 00:35:04,VALID,915.778,VALID,0,VALID,95.247,VALID,0,VALID,19.9788,VALID,47,VALID,0,
2012-12-27, 00:36:04,VALID,915.75,VALID,0,VALID,95.003,VALID,0,VALID,20.0179,VALID,47,VALID,0,
2012-12-27, 00:37:04,VALID,915.75,VALID,0,VALID,94.7591,VALID,0,VALID,20.0358,VALID,47,VALID,0,
2012-12-27, 00:38:04,VALID,915.745,VALID,0,VALID,94.4999,VALID,0,VALID,20.1154,VALID,47,VALID,0,
2012-12-27, 00:39:04,VALID,915.719,VALID,0,VALID,94.2559,VALID,0,VALID,20.1154,VALID,47,VALID,0,
2012-12-27, 00:40:04,VALID,915.709,VALID,0,VALID,94.012,VALID,0,VALID,20.1349,VALID,47,VALID,0,
2012-12-27, 00:41:04,VALID,915.736,VALID,0,VALID,93.7909,VALID,0,VALID,20.1349,VALID,47,VALID,0,
2012-12-27, 00:42:04,VALID,915.733,VALID,0,VALID,93.6155,VALID,0,VALID,20.1154,VALID,47,VALID,0,
2012-12-27, 00:43:04,VALID,915.72,VALID,0,VALID,93.4173,VALID,0,VALID,20.0974,VALID,47,VALID,0,
2012-12-27, 00:44:04,VALID,915.708,VALID,0,VALID,93.1963,VALID,0,VALID,19.9788,VALID,47,VALID,0,
2012-12-27, 00:45:04,VALID,915.732,VALID,0,VALID,93.4402,VALID,0,VALID,19.9398,VALID,47,VALID,0,
2012-12-27, 00:46:04,VALID,915.706,VALID,0,VALID,93.6842,VALID,0,VALID,19.9203,VALID,47,VALID,0,
2012-12-27, 00:47:04,VALID,915.695,VALID,0,VALID,93.829,VALID,0,VALID,19.8813,VALID,47,VALID,0,
2012-12-27, 00:48:04,VALID,915.685,VALID,0,VALID,94.1721,VALID,0,VALID,19.9008,VALID,47,VALID,0,
2012-12-27, 00:49:04,VALID,915.689,VALID,0,VALID,94.1263,VALID,0,VALID,19.8603,VALID,47,VALID,0,
2012-12-27, 00:50:04,VALID,915.653,VALID,0,VALID,94.1873,VALID,0,VALID,19.8408,VALID,47,VALID,0,
2012-12-27, 00:51:04,VALID,915.639,VALID,0,VALID,94.2788,VALID,0,VALID,19.8603,VALID,47,VALID,0,
2012-12-27, 00:52:04,VALID,915.659,VALID,0,VALID,94.294,VALID,0,VALID,19.8423,VALID,47,VALID,0,
2012-12-27, 00:53:04,VALID,915.658,VALID,0,VALID,94.3398,VALID,0,VALID,19.8228,VALID,47,VALID,0,
2012-12-27, 00:54:04,VALID,915.62,VALID,0,VALID,94.4465,VALID,0,VALID,19.8423,VALID,47,VALID,0,
2012-12-27, 00:55:04,VALID,915.598,VALID,0,VALID,94.538,VALID,0,VALID,19.8033,VALID,47,VALID,0,
2012-12-27, 00:56:04,VALID,915.608,VALID,0,VALID,94.599,VALID,0,VALID,19.8033,VALID,47,VALID,0,
2012-12-27, 00:57:04,VALID,915.577,VALID,0,VALID,94.5304,VALID,0,VALID,19.7448,VALID,47,VALID,0,
2012-12-27, 00:58:04,VALID,915.579,VALID,0,VALID,94.4541,VALID,0,VALID,19.7253,VALID,47,VALID,0,
2012-12-27, 00:59:04,VALID,915.547,VALID,0,VALID,94.5456,VALID,0,VALID,19.7073,VALID,134,VALID,0,
2012-12-27, 01:00:04,VALID,915.543,VALID,0,VALID,94.7057,VALID,0,VALID,19.7058,VALID,173,VALID,0,
2012-12-27, 01:01:04,VALID,915.545,VALID,0,VALID,94.7972,VALID,0,VALID,19.7253,VALID,173,VALID,0,
2012-12-27, 01:02:04,VALID,915.519,VALID,0,VALID,94.7667,VALID,0,VALID,19.7058,VALID,173,VALID,0,
2012-12-27, 01:03:04,VALID,915.54,VALID,0,VALID,94.7438,VALID,0,VALID,19.7058,VALID,173,VALID,0,
2012-12-27, 01:04:04,VALID,915.53,VALID,0,VALID,94.6676,VALID,0,VALID,19.6863,VALID,173,VALID,0,
2012-12-27, 01:05:04,VALID,915.535,VALID,0,VALID,94.7133,VALID,0,VALID,19.6668,VALID,173,VALID,0,
2012-12-27, 01:06:04,VALID,915.524,VALID,0,VALID,94.7972,VALID,0,VALID,19.6668,VALID,173,VALID,0,
2012-12-27, 01:07:04,VALID,915.492,VALID,0,VALID,94.8658,VALID,0,VALID,19.6668,VALID,173,VALID,0,
2012-12-27, 01:08:04,VALID,915.494,VALID,0,VALID,94.9496,VALID,0,VALID,19.6863,VALID,173,VALID,0,
2012-12-27, 01:09:04,VALID,915.506,VALID,0,VALID,94.942,VALID,0,VALID,19.6863,VALID,173,VALID,0,
2012-12-27, 01:10:04,VALID,915.492,VALID,0,VALID,94.9268,VALID,0,VALID,19.6863,VALID,173,VALID,0,
2012-12-27, 01:11:04,VALID,915.513,VALID,0,VALID,94.9878,VALID,0,VALID,19.7253,VALID,173,VALID,0,
2012-12-27, 01:12:04,VALID,915.508,VALID,0,VALID,94.9801,VALID,0,VALID,19.7253,VALID,173,VALID,0,
2012-12-27, 01:13:04,VALID,915.525,VALID,0,VALID,94.8963,VALID,0,VALID,19.7058,VALID,173,VALID,0,
2012-12-27, 01:14:04,VALID,915.535,VALID,0,VALID,94.7514,VALID,0,VALID,19.7268,VALID,173,VALID,0,
2012-12-27, 01:15:04,VALID,915.532,VALID,0,VALID,94.5075,VALID,0,VALID,19.6878,VALID,173,VALID,0,
2012-12-27, 01:16:04,VALID,915.525,VALID,0,VALID,94.3321,VALID,0,VALID,19.6293,VALID,173,VALID,0,
2012-12-27, 01:17:04,VALID,915.541,VALID,0,VALID,94.2254,VALID,0,VALID,19.5512,VALID,173,VALID,0,
2012-12-27, 01:18:04,VALID,915.545,VALID,0,VALID,94.2407,VALID,0,VALID,19.4913,VALID,173,VALID,0,
2012-12-27, 01:19:04,VALID,915.556,VALID,0,VALID,94.3321,VALID,0,VALID,19.4132,VALID,173,VALID,0,
2012-12-27, 01:20:04,VALID,915.57,VALID,0,VALID,94.5304,VALID,0,VALID,19.3742,VALID,173,VALID,0,
2012-12-27, 01:21:04,VALID,915.548,VALID,0,VALID,94.8887,VALID,0,VALID,19.3742,VALID,173,VALID,0,
2012-12-27, 01:22:04,VALID,915.613,VALID,0,VALID,95.0792,VALID,0,VALID,19.3952,VALID,173,VALID,0,
2012-12-27, 01:23:04,VALID,915.613,VALID,0,VALID,95.186,VALID,0,VALID,19.3952,VALID,173,VALID,0,
2012-12-27, 01:24:04,VALID,915.626,VALID,0,VALID,95.0183,VALID,0,VALID,19.3547,VALID,173,VALID,0,
2012-12-27, 01:25:04,VALID,915.652,VALID,0,VALID,95.0411,VALID,0,VALID,19.3547,VALID,173,VALID,0,
2012-12-27, 01:26:04,VALID,915.621,VALID,0,VALID,95.1097,VALID,0,VALID,19.2962,VALID,173,VALID,0,
2012-12-27, 01:27:04,VALID,915.662,VALID,0,VALID,95.2546,VALID,0,VALID,19.3172,VALID,173,VALID,0,
2012-12-27, 01:28:04,VALID,915.626,VALID,0,VALID,95.3384,VALID,0,VALID,19.2962,VALID,173,VALID,0,
2012-12-27, 01:29:04,VALID,915.6,VALID,0,VALID,95.5519,VALID,0,VALID,19.3742,VALID,173,VALID,0,
2012-12-27, 01:30:04,VALID,915.625,VALID,0,VALID,95.6739,VALID,0,VALID,19.4132,VALID,173,VALID,0,
2012-12-27, 01:31:04,VALID,915.584,VALID,0,VALID,95.8035,VALID,0,VALID,19.4327,VALID,173,VALID,0,
2012-12-27, 01:32:04,VALID,915.561,VALID,0,VALID,95.7882,VALID,0,VALID,19.5122,VALID,173,VALID,0,
2012-12-27, 01:33:04,VALID,915.586,VALID,0,VALID,95.773,VALID,0,VALID,19.5498,VALID,173,VALID,0,
2012-12-27, 01:34:04,VALID,915.545,VALID,0,VALID,95.7425,VALID,0,VALID,19.5498,VALID,173,VALID,0,
2012-12-27, 01:35:04,VALID,915.557,VALID,0,VALID,95.6739,VALID,0,VALID,19.5498,VALID,173,VALID,0,
2012-12-27, 01:36:04,VALID,915.536,VALID,0,VALID,95.4833,VALID,0,VALID,19.5498,VALID,173,VALID,0,
2012-12-27, 01:37:04,VALID,915.543,VALID,0,VALID,95.4985,VALID,0,VALID,19.6083,VALID,173,VALID,0,
2012-12-27, 01:38:04,VALID,915.526,VALID,0,VALID,95.4223,VALID,0,VALID,19.5512,VALID,173,VALID,0,
2012-12-27, 01:39:04,VALID,915.526,VALID,0,VALID,95.3232,VALID,0,VALID,19.5888,VALID,173,VALID,0,
2012-12-27, 01:40:04,VALID,915.512,VALID,0,VALID,95.2317,VALID,0,VALID,19.5498,VALID,173,VALID,0,
2012-12-27, 01:41:04,VALID,915.493,VALID,0,VALID,95.1936,VALID,0,VALID,19.5498,VALID,173,VALID,0,
2012-12-27, 01:42:04,VALID,915.475,VALID,0,VALID,95.2165,VALID,0,VALID,19.6488,VALID,171,VALID,0,
2012-12-27, 01:43:04,VALID,915.481,VALID,0,VALID,95.3156,VALID,0,VALID,19.7253,VALID,158,VALID,0,
2012-12-27, 01:44:04,VALID,915.439,VALID,0,VALID,95.3384,VALID,0,VALID,19.8048,VALID,176,VALID,0,
2012-12-27, 01:45:04,VALID,915.423,VALID,0,VALID,95.2775,VALID,0,VALID,19.8423,VALID,165,VALID,0,
2012-12-27, 01:46:04,VALID,915.366,VALID,0,VALID,95.1479,VALID,0,VALID,19.8813,VALID,163,VALID,0,
2012-12-27, 01:47:04,VALID,915.353,VALID,0,VALID,95.1555,VALID,0,VALID,19.9788,VALID,167,VALID,0,
2012-12-27, 01:48:04,VALID,915.334,VALID,0,VALID,95.0259,VALID,0,VALID,20.0179,VALID,171,VALID,0,
2012-12-27, 01:49:04,VALID,915.298,VALID,0,VALID,94.82,VALID,0,VALID,20.1739,VALID,135,VALID,0,
2012-12-27, 01:50:04,VALID,915.271,VALID,0,VALID,94.5913,VALID,0,VALID,20.1154,VALID,133,VALID,0,
2012-12-27, 01:51:04,VALID,915.249,VALID,0,VALID,94.3855,VALID,0,VALID,20.1154,VALID,140,VALID,0,
2012-12-27, 01:52:04,VALID,915.231,VALID,0,VALID,94.1873,VALID,0,VALID,20.1349,VALID,127,VALID,0,
2012-12-27, 01:53:04,VALID,915.228,VALID,0,VALID,94.0958,VALID,0,VALID,20.1934,VALID,124,VALID,0,
2012-12-27, 01:54:04,VALID,915.233,VALID,0,VALID,93.9738,VALID,0,VALID,20.2129,VALID,160,VALID,0,
2012-12-27, 01:55:04,VALID,915.233,VALID,0,VALID,93.9205,VALID,0,VALID,20.1544,VALID,110,VALID,0,
2012-12-27, 01:56:04,VALID,915.204,VALID,0,VALID,94.0043,VALID,0,VALID,20.1739,VALID,113,VALID,0,
2012-12-27, 01:57:04,VALID,915.164,VALID,0,VALID,93.9738,VALID,0,VALID,20.0959,VALID,111,VALID,0,
2012-12-27, 01:58:04,VALID,915.168,VALID,0,VALID,94.0577,VALID,0,VALID,20.0959,VALID,114,VALID,0,
2012-12-27, 01:59:04,VALID,915.121,VALID,0,VALID,94.1568,VALID,0,VALID,20.0959,VALID,111,VALID,0,
2012-12-27, 02:00:04,VALID,915.086,VALID,0,VALID,94.2178,VALID,0,VALID,20.0569,VALID,109,VALID,0,
2012-12-27, 02:01:04,VALID,915.04,VALID,0,VALID,94.3321,VALID,0,VALID,20.0179,VALID,110,VALID,0,
2012-12-27, 02:02:04,VALID,915.012,VALID,0,VALID,94.4313,VALID,0,VALID,19.9984,VALID,110,VALID,0,
2012-12-27, 02:03:04,VALID,914.979,VALID,0,VALID,94.5456,VALID,0,VALID,19.9999,VALID,116,VALID,0,
2012-12-27, 02:04:04,VALID,914.964,VALID,0,VALID,94.6676,VALID,0,VALID,19.9804,VALID,127,VALID,0,
2012-12-27, 02:05:04,VALID,914.934,VALID,0,VALID,94.7667,VALID,0,VALID,19.9203,VALID,155,VALID,0,
2012-12-27, 02:06:04,VALID,914.907,VALID,0,VALID,94.8429,VALID,0,VALID,19.8813,VALID,155,VALID,0,
2012-12-27, 02:07:04,VALID,914.863,VALID,0,VALID,94.9039,VALID,0,VALID,19.8618,VALID,155,VALID,0,
2012-12-27, 02:08:04,VALID,914.815,VALID,0,VALID,94.9573,VALID,0,VALID,19.8618,VALID,155,VALID,0,
2012-12-27, 02:09:04,VALID,914.816,VALID,0,VALID,95.0183,VALID,0,VALID,19.8618,VALID,151,VALID,0,
2012-12-27, 02:10:04,VALID,914.826,VALID,0,VALID,95.064,VALID,0,VALID,19.8033,VALID,151,VALID,0,
2012-12-27, 02:11:04,VALID,914.783,VALID,0,VALID,95.1555,VALID,0,VALID,19.7448,VALID,151,VALID,0,
2012-12-27, 02:12:04,VALID,914.795,VALID,0,VALID,95.2622,VALID,0,VALID,19.7448,VALID,151,VALID,0,
2012-12-27, 02:13:04,VALID,914.787,VALID,0,VALID,95.3842,VALID,0,VALID,19.7268,VALID,151,VALID,0,
2012-12-27, 02:14:04,VALID,914.74,VALID,0,VALID,95.4985,VALID,0,VALID,19.6278,VALID,151,VALID,0,
2012-12-27, 02:15:04,VALID,914.712,VALID,0,VALID,95.5824,VALID,0,VALID,19.7058,VALID,151,VALID,0,
2012-12-27, 02:16:04,VALID,914.693,VALID,0,VALID,95.7577,VALID,0,VALID,19.6863,VALID,114,VALID,0,
2012-12-27, 02:17:04,VALID,914.65,VALID,0,VALID,95.8797,VALID,0,VALID,19.7253,VALID,112,VALID,0,
2012-12-27, 02:18:04,VALID,914.671,VALID,0,VALID,95.834,VALID,0,VALID,19.7448,VALID,111,VALID,0,
2012-12-27, 02:19:04,VALID,914.671,VALID,0,VALID,95.7882,VALID,0,VALID,19.7448,VALID,121,VALID,0,
2012-12-27, 02:20:04,VALID,914.695,VALID,0,VALID,95.7577,VALID,0,VALID,19.6668,VALID,121,VALID,0,
2012-12-27, 02:21:04,VALID,914.661,VALID,0,VALID,95.6967,VALID,0,VALID,19.8033,VALID,123,VALID,0,
2012-12-27, 02:22:04,VALID,914.675,VALID,0,VALID,95.7196,VALID,0,VALID,19.7643,VALID,124,VALID,0,
2012-12-27, 02:23:04,VALID,914.649,VALID,0,VALID,95.6891,VALID,0,VALID,19.8228,VALID,127,VALID,0,
2012-12-27, 02:24:04,VALID,914.65,VALID,0,VALID,95.6815,VALID,0,VALID,19.8228,VALID,127,VALID,0,
2012-12-27, 02:25:04,VALID,914.664,VALID,0,VALID,95.6205,VALID,0,VALID,19.8228,VALID,127,VALID,0,
2012-12-27, 02:26:04,VALID,914.651,VALID,0,VALID,95.5671,VALID,0,VALID,19.8618,VALID,127,VALID,0,
2012-12-27, 02:27:04,VALID,914.616,VALID,0,VALID,95.5214,VALID,0,VALID,19.8033,VALID,146,VALID,0,
2012-12-27, 02:28:04,VALID,914.58,VALID,0,VALID,95.5214,VALID,0,VALID,19.7823,VALID,146,VALID,0,
2012-12-27, 02:29:04,VALID,914.558,VALID,0,VALID,95.5443,VALID,0,VALID,19.8033,VALID,146,VALID,0,
2012-12-27, 02:30:04,VALID,914.503,VALID,0,VALID,95.5214,VALID,0,VALID,19.8423,VALID,146,VALID,0,
2012-12-27, 02:31:04,VALID,914.496,VALID,0,VALID,95.5138,VALID,0,VALID,19.8033,VALID,146,VALID,0,
2012-12-27, 02:32:04,VALID,914.475,VALID,0,VALID,95.468,VALID,0,VALID,19.8033,VALID,146,VALID,0,
2012-12-27, 02:33:04,VALID,914.451,VALID,0,VALID,95.4528,VALID,0,VALID,19.8033,VALID,146,VALID,0,
2012-12-27, 02:34:04,VALID,914.482,VALID,0,VALID,95.4604,VALID,0,VALID,19.8033,VALID,146,VALID,0,
2012-12-27, 02:35:04,VALID,914.487,VALID,0,VALID,95.4375,VALID,0,VALID,19.7643,VALID,146,VALID,0,
2012-12-27, 02:36:04,VALID,914.485,VALID,0,VALID,95.4528,VALID,0,VALID,19.7838,VALID,146,VALID,0,
2012-12-27, 02:37:04,VALID,914.477,VALID,0,VALID,95.3689,VALID,0,VALID,19.8033,VALID,146,VALID,0,
2012-12-27, 02:38:04,VALID,914.485,VALID,0,VALID,95.3003,VALID,0,VALID,19.7838,VALID,145,VALID,0,
2012-12-27, 02:39:04,VALID,914.48,VALID,0,VALID,95.2012,VALID,0,VALID,19.7838,VALID,145,VALID,0,
2012-12-27, 02:40:04,VALID,914.492,VALID,0,VALID,95.0564,VALID,0,VALID,19.7643,VALID,107,VALID,0,
2012-12-27, 02:41:04,VALID,914.493,VALID,0,VALID,95.0106,VALID,0,VALID,19.7253,VALID,107,VALID,0,
2012-12-27, 02:42:04,VALID,914.5,VALID,0,VALID,95.0106,VALID,0,VALID,19.7253,VALID,107,VALID,0,
2012-12-27, 02:43:04,VALID,914.511,VALID,0,VALID,94.9496,VALID,0,VALID,19.7253,VALID,108,VALID,0,
2012-12-27, 02:44:04,VALID,914.488,VALID,0,VALID,94.8963,VALID,0,VALID,19.7253,VALID,111,VALID,0,
2012-12-27, 02:45:04,VALID,914.483,VALID,0,VALID,94.7972,VALID,0,VALID,19.7028,VALID,121,VALID,0,
2012-12-27, 02:46:04,VALID,914.503,VALID,0,VALID,94.6752,VALID,0,VALID,19.7463,VALID,117,VALID,0,
2012-12-27, 02:47:04,VALID,914.501,VALID,0,VALID,94.5609,VALID,0,VALID,19.7448,VALID,122,VALID,0,
2012-12-27, 02:48:04,VALID,914.48,VALID,0,VALID,94.477,VALID,0,VALID,19.7838,VALID,135,VALID,0,
2012-12-27, 02:49:04,VALID,914.51,VALID,0,VALID,94.3474,VALID,0,VALID,19.8033,VALID,135,VALID,0,
2012-12-27, 02:50:04,VALID,914.536,VALID,0,VALID,94.1416,VALID,0,VALID,19.8423,VALID,135,VALID,0,
2012-12-27, 02:51:04,VALID,914.491,VALID,0,VALID,93.9891,VALID,0,VALID,19.8813,VALID,135,VALID,0,
2012-12-27, 02:52:04,VALID,914.493,VALID,0,VALID,93.7451,VALID,0,VALID,19.8618,VALID,135,VALID,0,
2012-12-27, 02:53:04,VALID,914.502,VALID,0,VALID,93.7528,VALID,0,VALID,19.8618,VALID,135,VALID,0,
2012-12-27, 02:54:04,VALID,914.511,VALID,0,VALID,93.7223,VALID,0,VALID,19.8618,VALID,135,VALID,0,
2012-12-27, 02:55:04,VALID,914.504,VALID,0,VALID,93.6918,VALID,0,VALID,19.8423,VALID,135,VALID,0,
2012-12-27, 02:56:04,VALID,914.48,VALID,0,VALID,93.7299,VALID,0,VALID,19.8423,VALID,135,VALID,0,
2012-12-27, 02:57:04,VALID,914.466,VALID,0,VALID,93.8366,VALID,0,VALID,19.8228,VALID,135,VALID,0,
2012-12-27, 02:58:04,VALID,914.466,VALID,0,VALID,94.0577,VALID,0,VALID,19.8423,VALID,143,VALID,0,
2012-12-27, 02:59:04,VALID,914.444,VALID,0,VALID,94.2026,VALID,0,VALID,19.8423,VALID,143,VALID,0,
2012-12-27, 03:00:04,VALID,914.474,VALID,0,VALID,94.233,VALID,0,VALID,19.8213,VALID,143,VALID,0,
2012-12-27, 03:01:04,VALID,914.473,VALID,0,VALID,94.2712,VALID,0,VALID,19.8228,VALID,143,VALID,0,
2012-12-27, 03:02:04,VALID,914.461,VALID,0,VALID,94.3474,VALID,0,VALID,19.8228,VALID,149,VALID,0,
2012-12-27, 03:03:04,VALID,914.501,VALID,0,VALID,94.4236,VALID,0,VALID,19.8228,VALID,149,VALID,0,
2012-12-27, 03:04:04,VALID,914.457,VALID,0,VALID,94.5227,VALID,0,VALID,19.8033,VALID,149,VALID,0,
2012-12-27, 03:05:04,VALID,914.495,VALID,0,VALID,94.6066,VALID,0,VALID,19.8033,VALID,149,VALID,0,
2012-12-27, 03:06:04,VALID,914.493,VALID,0,VALID,94.7057,VALID,0,VALID,19.8228,VALID,149,VALID,0,
2012-12-27, 03:07:04,VALID,914.502,VALID,0,VALID,94.7209,VALID,0,VALID,19.8423,VALID,149,VALID,0,
2012-12-27, 03:08:04,VALID,914.489,VALID,0,VALID,94.7209,VALID,0,VALID,19.8618,VALID,147,VALID,0,
2012-12-27, 03:09:04,VALID,914.51,VALID,0,VALID,94.7286,VALID,0,VALID,19.8618,VALID,144,VALID,0,
2012-12-27, 03:10:04,VALID,914.499,VALID,0,VALID,94.6981,VALID,0,VALID,19.8618,VALID,124,VALID,0,
2012-12-27, 03:11:04,VALID,914.52,VALID,0,VALID,94.6905,VALID,0,VALID,19.8408,VALID,124,VALID,0,
2012-12-27, 03:12:04,VALID,914.546,VALID,0,VALID,94.6752,VALID,0,VALID,19.9008,VALID,123,VALID,0,
2012-12-27, 03:13:04,VALID,914.529,VALID,0,VALID,94.6066,VALID,0,VALID,19.8813,VALID,120,VALID,0,
2012-12-27, 03:14:04,VALID,914.534,VALID,0,VALID,94.6447,VALID,0,VALID,19.8618,VALID,120,VALID,0,
2012-12-27, 03:15:04,VALID,914.533,VALID,0,VALID,94.6905,VALID,0,VALID,19.8813,VALID,120,VALID,0,
2012-12-27, 03:16:04,VALID,914.516,VALID,0,VALID,94.7362,VALID,0,VALID,19.8813,VALID,120,VALID,0,
2012-12-27, 03:17:04,VALID,914.508,VALID,0,VALID,94.6905,VALID,0,VALID,19.8618,VALID,120,VALID,0,
2012-12-27, 03:18:04,VALID,914.475,VALID,0,VALID,94.6981,VALID,0,VALID,19.8408,VALID,95,VALID,0,
2012-12-27, 03:19:04,VALID,914.463,VALID,0,VALID,94.6218,VALID,0,VALID,19.8213,VALID,95,VALID,0,
2012-12-27, 03:20:04,VALID,914.469,VALID,0,VALID,94.599,VALID,0,VALID,19.8423,VALID,95,VALID,0,
2012-12-27, 03:21:04,VALID,914.465,VALID,0,VALID,94.599,VALID,0,VALID,19.8423,VALID,95,VALID,0,
2012-12-27, 03:22:04,VALID,914.432,VALID,0,VALID,94.538,VALID,0,VALID,19.8618,VALID,95,VALID,0,
2012-12-27, 03:23:04,VALID,914.414,VALID,0,VALID,94.4999,VALID,0,VALID,19.8813,VALID,95,VALID,0,
2012-12-27, 03:24:04,VALID,914.376,VALID,0,VALID,94.4617,VALID,0,VALID,19.8813,VALID,95,VALID,0,
2012-12-27, 03:25:04,VALID,914.356,VALID,0,VALID,94.4008,VALID,0,VALID,19.8813,VALID,95,VALID,0,
2012-12-27, 03:26:04,VALID,914.308,VALID,0,VALID,94.3169,VALID,0,VALID,19.8813,VALID,95,VALID,0,
2012-12-27, 03:27:04,VALID,914.272,VALID,0,VALID,94.2788,VALID,0,VALID,19.8813,VALID,95,VALID,0,
2012-12-27, 03:28:04,VALID,914.288,VALID,0,VALID,94.2254,VALID,0,VALID,19.9008,VALID,95,VALID,0,
2012-12-27, 03:29:04,VALID,914.286,VALID,0,VALID,94.1339,VALID,0,VALID,19.8813,VALID,95,VALID,0,
2012-12-27, 03:30:04,VALID,914.276,VALID,0,VALID,94.1416,VALID,0,VALID,19.8813,VALID,95,VALID,0,
2012-12-27, 03:31:04,VALID,914.264,VALID,0,VALID,94.1644,VALID,0,VALID,19.8408,VALID,95,VALID,0,
2012-12-27, 03:32:04,VALID,914.256,VALID,0,VALID,94.1949,VALID,0,VALID,19.8408,VALID,95,VALID,0,
2012-12-27, 03:33:04,VALID,914.273,VALID,0,VALID,94.2407,VALID,0,VALID,19.7808,VALID,95,VALID,0,
2012-12-27, 03:34:04,VALID,914.251,VALID,0,VALID,94.2864,VALID,0,VALID,19.7808,VALID,95,VALID,0,
2012-12-27, 03:35:04,VALID,914.276,VALID,0,VALID,94.3321,VALID,0,VALID,19.8018,VALID,95,VALID,0,
2012-12-27, 03:36:04,VALID,914.282,VALID,0,VALID,94.3855,VALID,0,VALID,19.7613,VALID,95,VALID,0,
2012-12-27, 03:37:04,VALID,914.267,VALID,0,VALID,94.4389,VALID,0,VALID,19.7628,VALID,95,VALID,0,
2012-12-27, 03:38:04,VALID,914.262,VALID,0,VALID,94.4617,VALID,0,VALID,19.7433,VALID,95,VALID,0,
2012-12-27, 03:39:04,VALID,914.276,VALID,0,VALID,94.4465,VALID,0,VALID,19.7238,VALID,95,VALID,0,
2012-12-27, 03:40:04,VALID,914.225,VALID,0,VALID,94.5456,VALID,0,VALID,19.7058,VALID,134,VALID,0,
2012-12-27, 03:41:04,VALID,914.214,VALID,0,VALID,94.6676,VALID,0,VALID,19.6458,VALID,134,VALID,0,
2012-12-27, 03:42:04,VALID,914.182,VALID,0,VALID,94.7667,VALID,0,VALID,19.6278,VALID,134,VALID,0,
2012-12-27, 03:43:04,VALID,914.182,VALID,0,VALID,94.8734,VALID,0,VALID,19.5288,VALID,134,VALID,0,
2012-12-27, 03:44:04,VALID,914.17,VALID,0,VALID,95.0106,VALID,0,VALID,19.5693,VALID,134,VALID,0,
2012-12-27, 03:45:04,VALID,914.146,VALID,0,VALID,95.2393,VALID,0,VALID,19.4913,VALID,134,VALID,0,
2012-12-27, 03:46:04,VALID,914.135,VALID,0,VALID,95.3842,VALID,0,VALID,19.5093,VALID,134,VALID,0,
2012-12-27, 03:47:04,VALID,914.128,VALID,0,VALID,95.5671,VALID,0,VALID,19.4508,VALID,134,VALID,0,
2012-12-27, 03:48:04,VALID,914.111,VALID,0,VALID,95.7044,VALID,0,VALID,19.4118,VALID,134,VALID,0,
2012-12-27, 03:49:04,VALID,914.083,VALID,0,VALID,95.895,VALID,0,VALID,19.4718,VALID,134,VALID,0,
2012-12-27, 03:50:04,VALID,914.052,VALID,0,VALID,95.9636,VALID,0,VALID,19.4913,VALID,134,VALID,0,
2012-12-27, 03:51:04,VALID,914.034,VALID,0,VALID,96.0398,VALID,0,VALID,19.4718,VALID,134,VALID,0,
2012-12-27, 03:52:04,VALID,914.01,VALID,0,VALID,96.0474,VALID,0,VALID,19.5108,VALID,134,VALID,0,
2012-12-27, 03:53:04,VALID,914.005,VALID,0,VALID,96.0474,VALID,0,VALID,19.5108,VALID,134,VALID,0,
2012-12-27, 03:54:04,VALID,913.992,VALID,0,VALID,96.0093,VALID,0,VALID,19.4913,VALID,134,VALID,0,
2012-12-27, 03:55:04,VALID,914.007,VALID,0,VALID,95.9559,VALID,0,VALID,19.4523,VALID,134,VALID,0,
2012-12-27, 03:56:04,VALID,914.003,VALID,0,VALID,95.9941,VALID,0,VALID,19.4523,VALID,134,VALID,0,
2012-12-27, 03:57:04,VALID,914.011,VALID,0,VALID,96.0169,VALID,0,VALID,19.4913,VALID,134,VALID,0,
2012-12-27, 03:58:04,VALID,914.035,VALID,0,VALID,96.0398,VALID,0,VALID,19.5888,VALID,134,VALID,0,
2012-12-27, 03:59:04,VALID,914.054,VALID,0,VALID,95.9026,VALID,0,VALID,19.6068,VALID,133,VALID,0,
2012-12-27, 04:00:04,VALID,914.043,VALID,0,VALID,95.6967,VALID,0,VALID,19.7043,VALID,133,VALID,0,